Location: Foulognes
(49.1413°N, 0.8183°W)
Time: 11:54:38
(UTC+00:00)

Cosmos 2084 Rocket - Pass Details

Date: 21 October 2019
Orbit: 572 x 609 km, 62.8° (Epoch: 16 November)

Event Time Altitude Azimuth Distance (km) Brightness Sun altitude
Rises 18:26:26 0° 317° (NW) 2,875 7.7 -14.4°
Reaches altitude 10° 18:28:43 10° 318° (NW) 1,965 6.7 -14.8°
Maximum altitude 18:33:10 81° 45° (NE) 617 3.4 -15.5°
Enters shadow 18:36:06 21° 133° (SE) 1,368 4.9 -16.0°
